| time (UTC) | temp F | wind direction | speed MPH | gust MPH | rain 1hr in | rain 24hr in | rain mn in | humidity % | barometer mb |
| 20260505052304 | 73 | 192 | 10.0 | 16.0 | 0.00 | 0.00 | 0.00 | 76 | 1004.0 |
| 20260505050932 | 73 | 180 | 9.0 | 20.0 | 0.00 | 0.00 | 0.00 | 75 | 1004.1 |
| 20260505041304 | 74 | 173 | 13.0 | 26.0 | 0.00 | 0.00 | 0.00 | 73 | 1004.3 |
| 20260505035304 | 74 | 186 | 13.0 | 21.0 | 0.00 | 0.00 | 0.00 | 72 | 1004.2 |
| 20260505033804 | 74 | 178 | 13.0 | 25.0 | 0.00 | 0.00 | 0.00 | 72 | 1004.2 |
| 20260505032805 | 74 | 170 | 10.0 | 20.0 | 0.00 | 0.00 | 0.00 | 72 | 1004.4 |
| 20260505032305 | 74 | 167 | 10.0 | 20.0 | 0.00 | 0.00 | 0.00 | 72 | 1004.4 |
| 20260505031805 | 74 | 172 | 9.0 | 16.0 | 0.00 | 0.00 | 0.00 | 71 | 1004.4 |
| 20260505031305 | 75 | 169 | 13.0 | 24.0 | 0.00 | 0.00 | 0.00 | 71 | 1004.4 |
| 20260505030304 | 75 | 167 | 12.0 | 20.0 | 0.00 | 0.00 | 0.00 | 71 | 1004.3 |
| 20260505025305 | 75 | 176 | 12.0 | 20.0 | 0.00 | 0.00 | 0.00 | 71 | 1004.4 |
| 20260505021804 | 75 | 172 | 11.0 | 21.0 | 0.00 | 0.00 | 0.00 | 70 | 1004.3 |
| 20260505021304 | 75 | 168 | 8.0 | 17.0 | 0.00 | 0.00 | 0.00 | 70 | 1004.1 |
| 20260505020304 | 75 | 169 | 10.0 | 20.0 | 0.00 | 0.00 | 0.00 | 69 | 1004.0 |
| 20260505015804 | 76 | 173 | 11.0 | 18.0 | 0.00 | 0.00 | 0.00 | 68 | 1004.0 |
| 20260505015304 | 76 | 170 | 8.0 | 17.0 | 0.00 | 0.00 | 0.00 | 68 | 1004.1 |
| 20260505012808 | 76 | 186 | 11.0 | 25.0 | 0.00 | 0.00 | 0.00 | 66 | 1004.0 |
| 20260505012308 | 76 | 180 | 10.0 | 18.0 | 0.00 | 0.00 | 0.00 | 66 | 1004.0 |
| 20260505011308 | 77 | 185 | 12.0 | 21.0 | 0.00 | 0.00 | 0.00 | 66 | 1004.0 |
| 20260505010309 | 77 | 184 | 13.0 | 21.0 | 0.00 | 0.00 | 0.00 | 66 | 1004.0 |
| 20260505005808 | 77 | 170 | 9.0 | 14.0 | 0.00 | 0.00 | 0.00 | 65 | 1004.0 |
| 20260505000308 | 79 | 184 | 14.0 | 25.0 | 0.00 | 0.00 | 0.00 | 62 | 1004.0 |
| 20260504234808 | 79 | 168 | 13.0 | 30.0 | 0.00 | 0.00 | 0.00 | 62 | 1004.2 |
| 20260504232808 | 79 | 203 | 13.0 | 29.0 | 0.00 | 0.00 | 0.00 | 61 | 1004.3 |
| 20260504231308 | 80 | 204 | 14.0 | 30.0 | 0.00 | 0.00 | 0.00 | 59 | 1004.8 |
| 20260504225817 | 80 | 181 | 16.0 | 30.0 | 0.00 | 0.00 | 0.00 | 59 | 1004.8 |
| 20260504225308 | 81 | 162 | 13.0 | 25.0 | 0.00 | 0.00 | 0.00 | 58 | 1004.8 |
| 20260504224807 | 81 | 170 | 12.0 | 23.0 | 0.00 | 0.00 | 0.00 | 58 | 1004.8 |
| 20260504224308 | 81 | 188 | 12.0 | 25.0 | 0.00 | 0.00 | 0.00 | 58 | 1004.9 |
| 20260504220807 | 81 | 171 | 11.0 | 25.0 | 0.00 | 0.00 | 0.00 | 57 | 1005.1 |
| 20260504215308 | 82 | 196 | 15.0 | 26.0 | 0.00 | 0.00 | 0.00 | 56 | 1005.3 |
| 20260504214807 | 82 | 172 | 15.0 | 24.0 | 0.00 | 0.00 | 0.00 | 56 | 1005.3 |
| 20260504214308 | 81 | 178 | 12.0 | 26.0 | 0.00 | 0.00 | 0.00 | 57 | 1005.3 |
| 20260504213807 | 81 | 191 | 12.0 | 25.0 | 0.00 | 0.00 | 0.00 | 57 | 1006.1 |
| 20260504212308 | 81 | 183 | 14.0 | 22.0 | 0.00 | 0.00 | 0.00 | 57 | 1006.1 |
| 20260504211308 | 81 | 179 | 11.0 | 23.0 | 0.00 | 0.00 | 0.00 | 57 | 1006.1 |
| 20260504210807 | 81 | 180 | 16.0 | 25.0 | 0.00 | 0.00 | 0.00 | 56 | 1006.1 |
| 20260504205808 | 81 | 198 | 13.0 | 25.0 | 0.00 | 0.00 | 0.00 | 56 | 1006.1 |
| 20260504204808 | 81 | 183 | 16.0 | 25.0 | 0.00 | 0.00 | 0.00 | 56 | 1007.1 |
| 20260504204307 | 81 | 156 | 12.0 | 24.0 | 0.00 | 0.00 | 0.00 | 56 | 1007.1 |
| 20260504203307 | 81 | 165 | 16.0 | 26.0 | 0.00 | 0.00 | 0.00 | 55 | 1007.1 |
| 20260504201308 | 82 | 168 | 12.0 | 23.0 | 0.00 | 0.00 | 0.00 | 55 | 1007.1 |
| 20260504194808 | 81 | 183 | 11.0 | 18.0 | 0.00 | 0.00 | 0.00 | 54 | 1008.1 |
| 20260504192807 | 81 | 178 | 13.0 | 21.0 | 0.00 | 0.00 | 0.00 | 54 | 1008.1 |
| 20260504191807 | 79 | 180 | 13.0 | 25.0 | 0.00 | 0.00 | 0.00 | 55 | 1008.1 |
| 20260504190807 | 80 | 196 | 14.0 | 25.0 | 0.00 | 0.00 | 0.00 | 53 | 1008.1 |
| 20260504185807 | 80 | 165 | 16.0 | 23.0 | 0.00 | 0.00 | 0.00 | 53 | 1008.3 |
| 20260504184807 | 79 | 187 | 12.0 | 29.0 | 0.00 | 0.00 | 0.00 | 54 | 1008.3 |
| 20260504182807 | 79 | 189 | 13.0 | 20.0 | 0.00 | 0.00 | 0.00 | 53 | 1008.5 |
| 20260504182307 | 80 | 163 | 13.0 | 26.0 | 0.00 | 0.00 | 0.00 | 52 | 1008.8 |
| 20260504181307 | 79 | 189 | 13.0 | 21.0 | 0.00 | 0.00 | 0.00 | 51 | 1008.8 |
| 20260504180807 | 79 | 179 | 11.0 | 20.0 | 0.00 | 0.00 | 0.00 | 52 | 1008.9 |
| 20260504180307 | 79 | 194 | 14.0 | 25.0 | 0.00 | 0.00 | 0.00 | 52 | 1008.8 |
| 20260504175808 | 78 | 199 | 10.0 | 25.0 | 0.00 | 0.00 | 0.00 | 53 | 1008.8 |
| 20260504174807 | 78 | 167 | 16.0 | 26.0 | 0.00 | 0.00 | 0.00 | 52 | 1009.3 |
| 20260504172807 | 77 | 189 | 11.0 | 24.0 | 0.00 | 0.00 | 0.00 | 53 | 1009.5 |
| 20260504172307 | 77 | 187 | 11.0 | 24.0 | 0.00 | 0.00 | 0.00 | 54 | 1009.6 |
| 20260504171807 | 77 | 194 | 13.0 | 26.0 | 0.00 | 0.00 | 0.00 | 52 | 1009.6 |
| 20260504170807 | 77 | 174 | 13.0 | 25.0 | 0.00 | 0.00 | 0.00 | 53 | 1009.8 |
| 20260504160307 | 74 | 193 | 16.0 | 25.0 | 0.00 | 0.00 | 0.00 | 56 | 1010.6 |
| 20260504150306 | 70 | 191 | 12.0 | 22.0 | 0.00 | 0.00 | 0.00 | 64 | 1011.1 |
| 20260504141306 | 67 | 186 | 12.0 | 21.0 | 0.00 | 0.00 | 0.00 | 68 | 1011.3 |
| 20260504140306 | 67 | 197 | 10.0 | 23.0 | 0.00 | 0.00 | 0.00 | 69 | 1011.3 |
| 20260504130306 | 65 | 189 | 9.0 | 20.0 | 0.00 | 0.00 | 0.00 | 71 | 1011.4 |
| 20260504120306 | 64 | 192 | 9.0 | 18.0 | 0.00 | 0.00 | 0.00 | 68 | 1011.0 |
| 20260504110306 | 64 | 187 | 10.0 | 18.0 | 0.00 | 0.00 | 0.00 | 68 | 1010.7 |
| 20260504080805 | 66 | 185 | 9.0 | 16.0 | 0.00 | 0.00 | 0.00 | 56 | 1011.7 |
| 20260504080305 | 67 | 181 | 7.0 | 13.0 | 0.00 | 0.00 | 0.00 | 55 | 1011.7 |